[[{"header":{"parameterUnit":"m.s-1","parameterCategory":1,"la1":30.2991,"la2":30.254,"lo1":-89.0895,"lo2":-89.0444,"dy":0.0017,"dx":0.0017,"nx":28,"ny":28,"refTime":"2024-04-30T03:00:00:Z","depth":0,"parameterNumber":2,"parameterNumberName":"U-component_of_WINDS"},"data":[0,0,0,0,0,0,0,0,0,0,0,0,0,0,0,0,0,0,0,0,0,0,0,0,0,0,0,0,0,0,0,0,0,0,0,0,0,0,0,0,0,0,0,0,0,0,0,0,0,0,0,0,0,0,0,0,0,0,-1.9997,-1.9997,0,-2.0018,-2.0019,-2.0019,-1.9958,-1.9956,-1.9954,-1.9953,-1.9976,-1.9978,-1.9981,0,0,0,0,0,0,0,0,0,0,0,0,0,-1.9904,-1.9906,-1.9997,-1.9997,-1.9997,-2.0018,-2.0019,-2.0019,-1.9959,-1.9956,-1.9954,-1.9952,-1.9975,-1.9978,-1.9981,0,0,0,0,0,0,0,0,0,0,0,0,0,-1.9937,-1.9906,-1.9996,-1.9969,-1.9967,-2.0018,-2.0019,-2.0019,-1.9959,-1.9956,-1.9953,-1.9951,-1.9974,-1.9978,-1.9981,-2.006,0,0,-1.9992,-1.9994,0,0,0,0,0,0,0,0,-1.9935,-1.994,-1.9973,-1.9971,-1.9969,-1.9983,-1.9994,-2.0033,-1.996,-1.9962,-1.9953,-1.9949,-1.9981,-1.9984,-1.9994,-2.0061,-2.0062,-1.9993,-1.9995,-1.9996,-1.9997,0,0,0,0,0,0,0,-1.9933,-1.9939,-2.0005,-1.9974,-1.9971,-1.9957,-1.9958,-2.0001,-1.9987,-1.9962,-1.9957,-1.9961,-1.9979,-1.9991,-1.9994,-2.0062,-1.9992,-1.9996,-1.9998,-1.9999,-2.0195,-2.0198,0,0,0,0,0,0,-1.9934,-1.9937,-2.0004,-2.0006,-1.9945,-1.9961,-1.9962,-1.9981,-1.9986,-1.9984,-1.9963,-1.9958,-1.9986,-1.999,-1.9995,-2.0087,-1.9996,-2.0,-2.0002,-2.0192,-2.0196,-2.0199,0,0,0,0,0,0,-1.9932,-1.994,-2.0004,-1.997,-1.9977,-1.9965,-1.9987,-1.9983,-1.9995,-1.9987,-1.9985,-1.9978,-1.9984,-1.999,-2.0044,-2.0087,-2.0001,-2.0004,-2.0189,-2.0194,-2.0198,-2.0272,0,0,0,0,0,0,-1.993,-1.994,-1.9969,-1.9972,-1.9979,-2.0053,-1.9989,-1.9986,-2.0001,-1.9994,-2.0,-1.9999,-1.9982,-2.0039,-2.0048,-2.009,-2.0007,-2.0185,-2.0191,-2.0196,-2.0266,-2.0279,-2.029,0,0,0,0,0,-1.9926,-1.999,-1.9971,-1.998,-2.0016,-2.0055,-2.006,-2.0039,-2.0004,-2.0034,-2.003,-1.9998,-2.0081,-2.0045,-2.0054,-2.0099,-2.0182,-2.0189,-2.0196,-2.0261,-2.0276,-2.029,0,0,0,0,0,0,-1.9993,-1.9989,-1.9969,-2.0035,-2.0046,-2.0045,-2.0081,-2.0056,-2.0078,-2.0071,-2.0045,-2.0047,-2.0106,-2.0108,-2.0068,-2.0175,-2.0126,-2.0135,-2.0172,-2.0187,-2.0198,-2.0197,-2.001,0,0,0,0,0,-2.0015,-2.0047,-2.0042,-2.0101,-2.0108,-2.0094,-2.011,-2.0094,-2.0104,-2.0108,-2.0108,-2.012,-2.0148,-2.0168,-2.0193,-2.0266,-2.0267,-2.0301,-2.0313,-2.0323,-2.0331,-2.037,-2.0385,-2.0222,-2.0222,-2.0222,0,0,-2.0062,-2.0064,-2.0085,-2.0114,-2.0121,-2.0155,-2.0098,-2.0136,-2.0162,-2.0114,-2.0166,-2.0166,-2.0177,-2.0242,-2.027,-2.0245,-2.0376,-2.0332,-2.034,-2.0343,-2.0379,-2.0394,-2.0408,-2.0227,-2.0226,-2.0225,0,0,-2.0163,-2.0168,-2.0217,-2.0225,-2.0236,-2.0227,-2.0239,-2.0242,-2.024,-2.0291,-2.0257,-2.0287,-2.0336,-2.0346,-2.0357,-2.0464,-2.0436,-2.0473,-2.0536,-2.0574,-2.0587,-2.0598,-2.0636,-2.065,-2.0481,-2.0481,-2.0482,0,-2.022,-2.0269,-2.0246,-2.0287,-2.0301,-2.026,-2.031,-2.0319,-2.0338,-2.0348,-2.032,-2.0382,-2.0387,-2.0453,-2.0479,-2.0489,-2.0502,-2.0472,-2.0587,-2.0598,-2.0608,-2.0644,-2.0658,-2.0486,-2.0485,-2.0485,-2.0484,0,-2.0338,-2.0373,-2.0412,-2.0431,-2.0449,-2.0495,-2.0479,-2.05,-2.0482,-2.0476,-2.0529,-2.0533,-2.056,-2.0574,-2.0557,-2.0638,-2.0622,-2.0591,-2.0541,-2.0628,-2.0662,-2.0675,-2.0492,-2.0491,-2.0489,-2.0488,0,0,-2.0482,-2.0488,-2.0503,-2.0511,-2.052,-2.0547,-2.0591,-2.0616,-2.0635,-2.065,-2.0686,-2.073,-2.0701,-2.0714,-2.0697,-2.0731,-2.0816,-2.0696,-2.0695,-2.0718,-2.0905,-2.0929,-2.0945,-2.0797,-2.08,-2.0802,-2.0904,0,-2.0582,-2.0657,-2.0638,-2.0712,-2.0744,-2.0706,-2.0744,-2.0754,-2.075,-2.0777,-2.0772,-2.0804,-2.0763,-2.0771,-2.0802,-2.0799,-2.0853,-2.0791,-2.0831,-2.0833,-2.0829,-2.0963,-2.0987,-2.1084,-2.0917,-2.092,-2.0921,0,-2.0709,-2.0729,-2.0807,-2.0811,-2.0824,-2.0858,-2.088,-2.0907,-2.0917,-2.0912,-2.0927,-2.0904,-2.0948,-2.0898,-2.0958,-2.0916,-2.0931,-2.0932,-2.0935,-2.0938,-2.0882,-2.0969,-2.1114,-2.1129,-2.0942,-2.094,-2.0938,0,-2.0807,-2.0852,-2.0905,-2.0913,-2.0919,-2.0945,-2.0948,-2.0956,-2.0973,-2.0993,-2.1003,-2.1028,-2.1041,-2.1061,-2.1046,-2.1011,-2.1109,-2.1057,-2.1105,-2.1106,-2.1127,-2.1126,-2.1277,-2.1138,-2.1138,-2.1137,-2.1137,0,-2.092,-2.097,-2.0948,-2.0981,-2.1035,-2.1012,-2.1067,-2.1066,-2.1074,-2.1106,-2.1074,-2.1105,-2.1083,-2.1112,-2.11,-2.1152,-2.1158,-2.1155,-2.1151,-2.1158,-2.1158,-2.1167,-2.116,-2.1141,-2.114,-2.114,-2.1139,0,-2.1038,-2.1026,-2.108,-2.1082,-2.1083,-2.1123,-2.1125,-2.1155,-2.1148,-2.1189,-2.1197,-2.1188,-2.122,-2.1207,-2.1241,-2.1233,-2.13,-2.1287,-2.1296,-2.1292,-2.1342,-2.1337,-2.1504,-2.1524,-2.1372,-2.1374,-2.1375,0,-2.1111,-2.1148,-2.1154,-2.1173,-2.1179,-2.121,-2.1227,-2.1206,-2.1225,-2.1241,-2.127,-2.1299,-2.1322,-2.1376,-2.1372,-2.1398,-2.1386,-2.1442,-2.139,-2.1395,-2.1387,-2.1385,-2.1388,-2.1453,-2.1455,-2.1456,-2.1457,0,-2.1243,-2.1235,-2.126,-2.1284,-2.1305,-2.1323,-2.1338,-2.1356,-2.1336,-2.1359,-2.1392,-2.141,-2.1445,-2.1475,-2.1498,-2.1503,-2.1477,-2.1474,-2.1487,-2.1493,-2.1497,-2.1496,-2.1324,-2.147,-2.1469,-2.1468,-2.1467,-2.1467,-2.134,-2.1371,-2.138,-2.141,-2.1419,-2.1434,-2.1463,-2.146,-2.1487,-2.1513,-2.15,-2.1538,-2.1549,-2.1578,-2.1586,-2.1616,-2.1594,-2.1612,-2.1616,-2.1621,-2.1628,-2.1493,-2.162,-2.162,-2.1619,-2.1619,-2.1619,0,-2.147,-2.1474,-2.1502,-2.1524,-2.1547,-2.1521,-2.1536,-2.1558,-2.1592,-2.1604,-2.1627,-2.1665,-2.1694,-2.1693,-2.172,-2.1744,-2.1733,-2.1752,-2.1749,-2.1751,-2.1646,-2.1632,-2.176,-2.176,-2.176,-2.176,-2.176,-2.176,-2.154,-2.1592,-2.1585,-2.1641,-2.1645,-2.1681,-2.1693,-2.1707,-2.1716,-2.176,-2.1784,-2.1782,-2.1789,-2.1817,-2.1843,-2.1841,-2.1853,-2.1876,-2.1871,-2.1772,-2.1758,-2.1745,-2.1732,-2.1879,-2.1879,-2.1973,-2.1974,-2.1975]},{"header":{"parameterUnit":"m.s-1","parameterCategory":1,"la1":30.2991,"la2":30.254,"lo1":-89.0895,"lo2":-89.0444,"dy":0.0017,"dx":0.0017,"nx":28,"ny":28,"refTime":"2024-04-30T03:00:00:Z","depth":0,"parameterNumber":3,"parameterNumberName":"V-component_of_WINDS"},"data":[0,0,0,0,0,0,0,0,0,0,0,0,0,0,0,0,0,0,0,0,0,0,0,0,0,0,0,0,0,0,0,0,0,0,0,0,0,0,0,0,0,0,0,0,0,0,0,0,0,0,0,0,0,0,0,0,0,0,-0.2175,-0.2175,0,-0.2206,-0.2206,-0.2206,-0.2217,-0.2217,-0.2217,-0.2217,-0.2249,-0.225,-0.2251,0,0,0,0,0,0,0,0,0,0,0,0,0,-0.2124,-0.2125,-0.2175,-0.2175,-0.2176,-0.2206,-0.2206,-0.2206,-0.2217,-0.2217,-0.2217,-0.2217,-0.2249,-0.225,-0.2251,0,0,0,0,0,0,0,0,0,0,0,0,0,-0.215,-0.2126,-0.2175,-0.2184,-0.2186,-0.2206,-0.2206,-0.2207,-0.2217,-0.2217,-0.2217,-0.2216,-0.2248,-0.225,-0.2251,-0.2264,0,0,-0.2256,-0.2256,0,0,0,0,0,0,0,0,-0.2148,-0.2152,-0.2183,-0.2184,-0.2185,-0.2207,-0.22,-0.2226,-0.2217,-0.2205,-0.2217,-0.2216,-0.2235,-0.2238,-0.2244,-0.2265,-0.2267,-0.2256,-0.2257,-0.2257,-0.2258,0,0,0,0,0,0,0,-0.2147,-0.215,-0.2187,-0.2183,-0.2185,-0.2187,-0.219,-0.2205,-0.2221,-0.2206,-0.2207,-0.221,-0.2236,-0.2243,-0.2245,-0.2267,-0.2256,-0.2257,-0.2258,-0.2258,-0.2299,-0.2299,0,0,0,0,0,0,-0.2143,-0.2149,-0.2186,-0.2188,-0.2166,-0.2188,-0.2192,-0.22,-0.2221,-0.2224,-0.2211,-0.2211,-0.224,-0.2243,-0.2246,-0.2262,-0.2257,-0.2259,-0.2259,-0.2299,-0.2299,-0.2299,0,0,0,0,0,0,-0.2142,-0.2146,-0.2185,-0.2169,-0.2174,-0.2189,-0.2199,-0.2201,-0.2208,-0.2224,-0.2227,-0.2215,-0.224,-0.2244,-0.2259,-0.2263,-0.2259,-0.2261,-0.2299,-0.2299,-0.2299,-0.2293,0,0,0,0,0,0,-0.2141,-0.2146,-0.2151,-0.2169,-0.2175,-0.2197,-0.2199,-0.2202,-0.221,-0.2211,-0.2229,-0.2231,-0.224,-0.2257,-0.226,-0.2265,-0.2262,-0.2298,-0.2299,-0.2299,-0.2293,-0.2293,-0.2293,0,0,0,0,0,-0.2139,-0.2149,-0.2152,-0.2156,-0.2181,-0.2198,-0.2201,-0.2211,-0.221,-0.2216,-0.2226,-0.2231,-0.2262,-0.2258,-0.2262,-0.2267,-0.2298,-0.2299,-0.2299,-0.2293,-0.2293,-0.2293,0,0,0,0,0,0,-0.2132,-0.2151,-0.2155,-0.2171,-0.2182,-0.2199,-0.2207,-0.2211,-0.2223,-0.2224,-0.2235,-0.2239,-0.2253,-0.2262,-0.2258,-0.228,-0.228,-0.2281,-0.2274,-0.2274,-0.2274,-0.2272,-0.2263,0,0,0,0,0,-0.2133,-0.2144,-0.216,-0.2173,-0.2178,-0.2191,-0.2199,-0.2205,-0.2218,-0.2223,-0.2235,-0.2247,-0.2259,-0.2267,-0.228,-0.2294,-0.2298,-0.2299,-0.2299,-0.2299,-0.2301,-0.2308,-0.2309,-0.2301,-0.2301,-0.2301,0,0,-0.2134,-0.2146,-0.2152,-0.2172,-0.2182,-0.2193,-0.2196,-0.2208,-0.2216,-0.2225,-0.224,-0.2248,-0.2263,-0.2277,-0.2284,-0.2285,-0.2303,-0.23,-0.23,-0.2301,-0.2308,-0.2309,-0.231,-0.2301,-0.2301,-0.2301,0,0,-0.2142,-0.2152,-0.2163,-0.2172,-0.2187,-0.2195,-0.2197,-0.2213,-0.2219,-0.2234,-0.224,-0.225,-0.2272,-0.2281,-0.2289,-0.2298,-0.2303,-0.2302,-0.2303,-0.2309,-0.231,-0.2311,-0.2313,-0.2314,-0.2303,-0.2303,-0.2303,0,-0.2142,-0.2159,-0.2168,-0.218,-0.2188,-0.2195,-0.2206,-0.2215,-0.2233,-0.2238,-0.2238,-0.2264,-0.2274,-0.229,-0.2292,-0.2298,-0.2301,-0.23,-0.2309,-0.231,-0.2311,-0.2313,-0.2314,-0.2302,-0.2302,-0.2302,-0.2302,0,-0.2158,-0.2169,-0.2177,-0.2193,-0.2201,-0.2213,-0.2223,-0.2231,-0.2236,-0.2244,-0.2258,-0.227,-0.2284,-0.2288,-0.2294,-0.2305,-0.2305,-0.2307,-0.2307,-0.2311,-0.2314,-0.2315,-0.2302,-0.2302,-0.2302,-0.2302,0,0,-0.2164,-0.2184,-0.2186,-0.2193,-0.2209,-0.2218,-0.2229,-0.2242,-0.2248,-0.2259,-0.2269,-0.2285,-0.2287,-0.2295,-0.2302,-0.2308,-0.2313,-0.2309,-0.2309,-0.2309,-0.2325,-0.2324,-0.2325,-0.2316,-0.2316,-0.2316,-0.2324,0,-0.2174,-0.2194,-0.2201,-0.2218,-0.2228,-0.2234,-0.2243,-0.2254,-0.2261,-0.2271,-0.2278,-0.229,-0.2291,-0.2296,-0.2302,-0.2311,-0.2317,-0.2311,-0.2325,-0.2325,-0.2321,-0.2327,-0.2326,-0.2333,-0.2325,-0.2326,-0.2326,0,-0.2189,-0.2199,-0.2216,-0.2229,-0.2234,-0.2242,-0.2254,-0.2263,-0.2275,-0.2279,-0.2288,-0.2293,-0.2304,-0.2303,-0.2318,-0.2314,-0.232,-0.2324,-0.2325,-0.2327,-0.2326,-0.2329,-0.2335,-0.2336,-0.2328,-0.2327,-0.2327,0,-0.2191,-0.221,-0.2222,-0.2228,-0.2243,-0.2248,-0.2255,-0.2266,-0.2273,-0.2283,-0.2288,-0.23,-0.2306,-0.2315,-0.2323,-0.2321,-0.2337,-0.2337,-0.2341,-0.2341,-0.2345,-0.2344,-0.2352,-0.2348,-0.2348,-0.2348,-0.2348,0,-0.2202,-0.2212,-0.2223,-0.2231,-0.2242,-0.225,-0.2261,-0.2268,-0.2277,-0.2285,-0.2291,-0.2299,-0.2309,-0.2318,-0.2325,-0.2336,-0.2339,-0.2342,-0.2344,-0.2342,-0.2342,-0.2347,-0.2347,-0.2348,-0.2348,-0.2348,-0.2348,0,-0.2207,-0.2215,-0.2229,-0.2242,-0.2245,-0.2252,-0.2263,-0.227,-0.2277,-0.2288,-0.2291,-0.2301,-0.2312,-0.232,-0.2335,-0.2339,-0.235,-0.2352,-0.2347,-0.2347,-0.2351,-0.2351,-0.2362,-0.2364,-0.2359,-0.2359,-0.2359,0,-0.2214,-0.2222,-0.2234,-0.224,-0.2247,-0.2256,-0.2263,-0.2271,-0.2277,-0.229,-0.2295,-0.2306,-0.2315,-0.2332,-0.2341,-0.2351,-0.2354,-0.2357,-0.2355,-0.2353,-0.2354,-0.2353,-0.2354,-0.2357,-0.2357,-0.2357,-0.2357,0,-0.2224,-0.2227,-0.2237,-0.2247,-0.2255,-0.2264,-0.2272,-0.2277,-0.2286,-0.2293,-0.2304,-0.2311,-0.2324,-0.2335,-0.2346,-0.2353,-0.2356,-0.2357,-0.2359,-0.2357,-0.2354,-0.2356,-0.2347,-0.2358,-0.2358,-0.2358,-0.2358,-0.2358,-0.2231,-0.2237,-0.2247,-0.2257,-0.2264,-0.2271,-0.2278,-0.2285,-0.2294,-0.2306,-0.2309,-0.232,-0.2329,-0.2345,-0.2351,-0.2359,-0.236,-0.2362,-0.2363,-0.2363,-0.2363,-0.2352,-0.2361,-0.2361,-0.2361,-0.2361,-0.2361,0,-0.2241,-0.2247,-0.2256,-0.2268,-0.2275,-0.2277,-0.2286,-0.2292,-0.2302,-0.231,-0.2318,-0.233,-0.234,-0.2348,-0.2358,-0.2363,-0.2365,-0.2366,-0.2366,-0.2367,-0.2362,-0.2359,-0.2364,-0.2364,-0.2364,-0.2364,-0.2364,-0.2364,-0.2248,-0.2259,-0.2263,-0.2277,-0.2283,-0.2293,-0.2298,-0.2304,-0.2311,-0.2323,-0.2331,-0.2336,-0.2345,-0.2355,-0.2364,-0.2366,-0.2369,-0.2369,-0.2372,-0.2368,-0.2367,-0.2367,-0.2365,-0.237,-0.237,-0.2376,-0.2377,-0.2377]}]]